Hayward, WI

7:09 AM CST on November 15, 2019 (GMT -0600)
Sawyer County

Weather History for KHYR - September, 2019

Change the Weather History Date:

Sunday, September 15, 2019

  Actual Average Record
Temperature  
Mean Temperature 66 °F -  
Max Temperature 78 °F 72 °F 87 °F (2018)
Min Temperature 54 °F 44 °F 24 °F (2007)
Cooling Degree Days 1    
Growing Degree Days 16 (Base 50)    
Moisture  
Dew Point 58 °F    
Average Humidity 85    
Maximum Humidity 97    
Minimum Humidity 52    
Precipitation  
Precipitation 0.00 in - - ()
Sea Level Pressure  
Sea Level Pressure 30.01 in    
Wind  
Wind Speed 2 mph (SW)    
Max Wind Speed 7 mph    
Max Gust Speed -    
Visibility 7 miles    
Events      
Averages and records for this station are not official NWS values.
T = Trace of Precipitation, MM = Missing Value Source: NWS Daily Summary

Daily Weather History Graph

Daily Weather History Graph

Search for Another Location

Airport or City:

Astronomy

Sep. 15, 2019 Rise Set
Actual Time 6:43 AM CDT 7:17 PM CDT
Civil Twilight 6:13 AM CDT 7:47 PM CDT
Nautical Twilight 5:37 AM CDT 8:23 PM CDT
Astronomical Twilight 5:00 AM CDT 8:59 PM CDT
Moon 8:22 PM CDT 7:55 AM CDT
Length of Visible Light 13h 33m
Length of Day
12h 33m
Full, 98% of the Moon is Illuminated
Sep 15
Full
Sep 21
Last Quarter
Sep 28
New
Oct 5
First Quarter
Oct 13
Full

Hourly Weather History & Observations

Time (CDT) Temp. Dew Point Humidity Pressure Visibility Wind Dir Wind Speed Gust Speed Precip Events Conditions
12:53 AM 60.1 °F 55.9 °F 86% 30.00 in 10.0 mi South 5.8 mph - N/A   Overcast
1:53 AM 60.1 °F 55.9 °F 86% 29.99 in 10.0 mi Calm Calm - N/A   Mostly Cloudy
3:53 AM 57.0 °F 55.0 °F 93% 29.98 in 8.0 mi Calm Calm - N/A   Clear
4:53 AM 57.0 °F 54.0 °F 89% 29.99 in 10.0 mi Calm Calm - N/A   Mostly Cloudy
5:53 AM 59.0 °F 57.0 °F 93% 29.98 in 10.0 mi Calm Calm - N/A   Overcast
6:53 AM 60.1 °F 57.0 °F 90% 29.99 in 10.0 mi Calm Calm - N/A   Overcast
7:12 AM 60.1 °F 57.0 °F 90% 29.99 in 10.0 mi Calm Calm - N/A   Overcast
7:53 AM 60.1 °F 57.0 °F 90% 29.99 in 8.0 mi Calm Calm - N/A   Overcast
8:53 AM 62.1 °F 57.9 °F 86% 30.00 in 10.0 mi Calm Calm - N/A   Overcast
9:17 AM 63.0 °F 59.0 °F 87% 30.00 in 10.0 mi Calm Calm - N/A   Overcast
9:49 AM 64.4 °F 60.8 °F 88% 30.01 in 10.0 mi Calm Calm - N/A   Overcast
9:53 AM 64.0 °F 59.0 °F 84% 30.01 in 10.0 mi Calm Calm - N/A   Overcast
10:53 AM 66.0 °F 60.1 °F 81% 30.02 in 10.0 mi SW 3.5 mph - N/A   Overcast
11:39 AM 69.1 °F 62.1 °F 78% 30.01 in 10.0 mi Variable 3.5 mph - N/A   Mostly Cloudy
11:53 AM 70.0 °F 63.0 °F 78% 30.01 in 10.0 mi Variable 3.5 mph - N/A   Partly Cloudy
12:39 PM 72.0 °F 63.0 °F 73% 30.01 in 10.0 mi Variable 5.8 mph - N/A   Mostly Cloudy
12:53 PM 73.0 °F 64.0 °F 73% 30.01 in 10.0 mi SSW 6.9 mph - N/A   Mostly Cloudy
1:38 PM 75.0 °F 61.0 °F 62% 30.01 in 10.0 mi SW 5.8 mph - N/A   Scattered Clouds
1:53 PM 75.0 °F 62.1 °F 64% 30.00 in 10.0 mi Calm Calm - N/A   Scattered Clouds
2:53 PM 75.9 °F 62.1 °F 62% 30.00 in 10.0 mi Variable 3.5 mph - N/A   Partly Cloudy
3:53 PM 77.0 °F 61.0 °F 58% 29.99 in 10.0 mi Variable 3.5 mph - N/A   Clear
4:53 PM 77.0 °F 60.1 °F 56% 29.98 in 10.0 mi Calm Calm - N/A   Clear
5:53 PM 77.0 °F 57.9 °F 52% 29.98 in 10.0 mi West 3.5 mph - N/A   Clear
6:53 PM 69.1 °F 63.0 °F 81% 30.00 in 10.0 mi Calm Calm - N/A   Clear
7:53 PM 64.9 °F 61.0 °F 87% 30.01 in 10.0 mi Calm Calm - N/A   Clear
8:09 PM 63.0 °F 61.0 °F 93% 30.01 in 0.8 mi NNE 3.5 mph - N/A   Clear
8:18 PM 62.1 °F 60.1 °F 93% 30.01 in 1.8 mi Calm Calm - N/A   Clear
8:25 PM 63.0 °F 60.1 °F 90% 30.02 in 9.0 mi Calm Calm - N/A   Clear
8:53 PM 60.1 °F 57.9 °F 93% 30.03 in 9.0 mi Calm Calm - N/A   Clear
9:10 PM 60.1 °F 57.9 °F 93% 30.02 in 1.5 mi Calm Calm - N/A   Partly Cloudy
9:17 PM 60.1 °F 57.9 °F 93% 30.02 in 0.8 mi Calm Calm - N/A   Mist
9:21 PM 60.1 °F 57.9 °F 93% 30.02 in 1.8 mi Calm Calm - N/A   Partly Cloudy
9:28 PM 59.0 °F 57.0 °F 93% 30.02 in 2.5 mi Calm Calm - N/A   Mostly Cloudy
9:35 PM 59.0 °F 55.9 °F 90% 30.03 in 8.0 mi Calm Calm - N/A   Mostly Cloudy
9:53 PM 57.9 °F 55.0 °F 90% 30.04 in 10.0 mi Calm Calm - N/A   Overcast
10:12 PM 57.0 °F 55.0 °F 93% 30.04 in 2.0 mi Calm Calm - N/A   Mostly Cloudy
10:17 PM 57.0 °F 55.0 °F 93% 30.04 in 1.8 mi Calm Calm - N/A   Scattered Clouds
10:23 PM 57.0 °F 55.0 °F 93% 30.04 in 3.0 mi Calm Calm - N/A   Scattered Clouds
10:30 PM 57.0 °F 54.0 °F 89% 30.04 in 2.0 mi Calm Calm - N/A   Mostly Cloudy
10:32 PM 57.0 °F 55.0 °F 93% 30.04 in 0.8 mi Calm Calm - N/A   Mist
10:53 PM 55.9 °F 54.0 °F 93% 30.05 in 1.5 mi Calm Calm - N/A   Overcast
10:58 PM 55.9 °F 54.0 °F 93% 30.04 in 3.0 mi NNE 3.5 mph - N/A   Overcast
11:16 PM 55.0 °F 53.1 °F 93% 30.04 in 2.5 mi Calm Calm - N/A   Scattered Clouds
11:27 PM 55.0 °F 54.0 °F 96% 30.04 in 0.8 mi Calm Calm - N/A   Mist
11:35 PM 55.0 °F 54.0 °F 96% 30.04 in 1.2 mi Calm Calm - N/A   Partly Cloudy
11:40 PM 55.0 °F 53.1 °F 93% 30.04 in 3.0 mi Calm Calm - N/A   Partly Cloudy
11:53 PM 54.0 °F 53.1 °F 97% 30.04 in 9.0 mi Calm Calm - N/A   Partly Cloudy